Weather History for PANT - May, 2013

Change the Weather History Date:

Tuesday, May 21, 2013

  Actual Average Record
Temperature  
Mean Temperature 55 °F 51 °F  
Max Temperature 65 °F 57 °F 88 °F (1963)
Min Temperature 45 °F 45 °F 35 °F (1966)
Degree Days  
Heating Degree Days 10 14  
Month to date heating degree days 318 334  
Since 1 July heating degree days 6306 6279  
Cooling Degree Days 0    
Month to date cooling degree days 0  
Year to date cooling degree days 0  
Growing Degree Days 5 (Base 50)    
Moisture  
Dew Point 36 °F    
Average Humidity 0    
Maximum Humidity 0    
Minimum Humidity 0    
Precipitation  
Precipitation 0.00 in 0.17 in 1.93 in (1988)
Month to date precipitation 5.81 3.88  
Year to date precipitation 38.29 36.74  
Snow  
Snow 0.00 in 0.00 in 0.00 in (2015)
Month to date snowfall 0.0 0.1  
Since 1 July snowfall 12.8 34.9  
Snow Depth 0.00 in    
Sea Level Pressure  
Sea Level Pressure 29.99 in    
Wind  
Wind Speed 10 mph (NNW)    
Max Wind Speed 18 mph    
Max Gust Speed 24 mph    
Visibility 10 miles    
Events      
T = Trace of Precipitation, MM = Missing Value Source: NWS Daily Summary

Daily Weather History Graph

Daily Weather History Graph

Search for Another Location

Airport or City:

Trip Planner

Search our weather history database for the weather conditions in past years. The results will help you decide how hot, cold, wet, or windy it might be!

Date:

Astronomy

May. 21, 2013 Rise Set
Actual Time 4:27 AM AKDT 8:59 PM AKDT
Civil Twilight 3:37 AM AKDT 9:49 PM AKDT
Nautical Twilight 2:18 AM AKDT 11:10 PM AKDT
Astronomical Twilight Sun does not set Sun does not set
Moon 4:46 PM AKDT (5/21) 2:40 AM AKDT (5/21)
Length of Visible Light 18h 11m
Length of Day
16h 31m
Waxing Gibbous, 85% of the Moon is Illuminated
May 21
Waxing Gibbous
May 24
Full
May 31
Last Quarter
Jun 8
New
Jun 16
First Quarter

Hourly Weather History & Observations

Time (AKDT) Temp. Windchill Dew Point Humidity Pressure Visibility Wind Dir Wind Speed Gust Speed Precip Events Conditions
12:53 AM 46.0 °F 42.5 °F 34.0 °F 63% 30.11 in 10.0 mi NNW 6.9 mph - N/A   Partly Cloudy
1:53 AM 46.0 °F 42.5 °F 34.0 °F 63% 30.09 in 10.0 mi North 6.9 mph - N/A   Mostly Cloudy
2:53 AM 46.9 °F - 35.1 °F 63% 30.07 in 10.0 mi North 10.4 mph 16.1 mph N/A   Overcast
3:53 AM 46.0 °F 41.0 °F 35.1 °F 66% 30.06 in 10.0 mi NNW 10.4 mph 19.6 mph N/A   Mostly Cloudy
4:53 AM 46.0 °F 40.6 °F 35.1 °F 66% 30.05 in 10.0 mi NNW 11.5 mph - N/A   Mostly Cloudy
5:53 AM 48.0 °F - 34.0 °F 58% 30.04 in 10.0 mi NNW 12.7 mph 19.6 mph N/A   Clear
6:53 AM 50.0 °F - 34.0 °F 54% 30.03 in 10.0 mi NNW 13.8 mph - N/A   Mostly Cloudy
7:53 AM 53.1 °F - 35.1 °F 50% 30.02 in 10.0 mi NNW 12.7 mph 20.7 mph N/A   Mostly Cloudy
8:53 AM 55.0 °F - 36.0 °F 49% 30.01 in 10.0 mi NNW 12.7 mph 23.0 mph N/A   Mostly Cloudy
9:53 AM 57.9 °F - 37.0 °F 46% 30.00 in 10.0 mi NNW 15.0 mph 23.0 mph N/A   Partly Cloudy
10:53 AM 59.0 °F - 39.9 °F 49% 29.98 in 10.0 mi NW 10.4 mph - N/A   Clear
11:53 AM 61.0 °F - 39.0 °F 44% 29.97 in 10.0 mi NW 13.8 mph - N/A   Partly Cloudy
12:53 PM 62.1 °F - 37.9 °F 41% 29.96 in 10.0 mi NW 15.0 mph 21.9 mph N/A   Clear
1:53 PM 63.0 °F - 37.9 °F 40% 29.95 in 10.0 mi NW 15.0 mph 20.7 mph N/A   Scattered Clouds
2:53 PM 62.1 °F - 37.9 °F 41% 29.95 in 10.0 mi NW 15.0 mph - N/A   Scattered Clouds
3:53 PM 64.0 °F - 37.0 °F 37% 29.94 in 10.0 mi NW 12.7 mph 21.9 mph N/A   Scattered Clouds
4:53 PM 64.0 °F - 36.0 °F 35% 29.94 in 10.0 mi NW 13.8 mph 23.0 mph N/A   Mostly Cloudy
5:53 PM 63.0 °F - 35.1 °F 35% 29.93 in 10.0 mi NNW 12.7 mph 19.6 mph N/A   Clear
6:53 PM 62.1 °F - 36.0 °F 38% 29.93 in 10.0 mi NNW 5.8 mph - N/A   Clear
7:53 PM 60.1 °F - 35.1 °F 39% 29.93 in 10.0 mi NNW 8.1 mph - N/A   Clear
8:53 PM 57.0 °F - 35.1 °F 44% 29.93 in 10.0 mi NNW 5.8 mph - N/A   Clear
9:53 PM 55.0 °F - 37.0 °F 51% 29.93 in 10.0 mi NNW 5.8 mph - N/A   Clear
10:53 PM 54.0 °F - 36.0 °F 51% 29.92 in 10.0 mi NNW 5.8 mph - N/A   Clear
11:53 PM 53.1 °F - 37.0 °F 55% 29.92 in 10.0 mi NW 9.2 mph - N/A   Clear